Location: Newark
(34.6283°N, 36.0776°E)
Time: 23:50:24
(UTC+00:00)

Tiros 1 despin weight - Pass Details

Date: 29 September 2019
Orbit: 593 x 643 km, 48.2° (Epoch: 22 October)

Event Time Altitude Azimuth Distance (km) Brightness Sun altitude
Rises 09:49:30 0° 307° (NW) 2,895 ? 52.6°
Reaches altitude 10° 09:52:46 10° 331° (NNW) 1,977 ? 52.5°
Maximum altitude 09:55:23 15° 6° (N) 1,661 ? 52.4°
Drops below altitude 10° 09:58:00 10° 42° (NE) 1,958 ? 52.2°
Sets 10:01:12 0° 66° (ENE) 2,850 ? 52.1°
